Zurück zum Katalog

STARLINK-4268

AktivKommunikationVLEO
NORAD 53183·PAYLOAD·🇺🇸 United States

Gestartet Jul 17, 2022 von Cape Canaveral Space Force Station

Loading…

Nächste Überflüge (nächste 24 Stunden)

TLE

AktuellSource: CelesTrak SupGP

Epoche: Sep 14, 2026, 22:11 UTC

1 53183C 22083BD  26257.92479167 -.00035126  00000+0 -10051-2 0  2576
2 53183  53.1587 347.9483 0001126  86.8972 214.8515 15.35413540    17

Verfolge STARLINK-4268 in Echtzeit mit AllMySat

Download on the App Store